Terminal Aerodrome Forecast
Issued by NWS Blacksburg, VA

Current Version | Previous Version | Graphics & Text | Print | Product List | Glossary On
Versions: 1 2 3 4 5 6 7 8 9 10 11 12 13 14 15 16 17 18 19 20 21 22 23 24 25 26 27 28 29 30 31 32 33 34 35 36 37 38 39 40 41 42 43 44 45 46 47 48 49 50
000
FTUS41 KRNK 070520
TAFBLF
TAF
KBLF 070520Z 0706/0806 24004KT P6SM SKC
      TEMPO 0711/0712 4SM BR
     FM071300 26007KT P6SM BKN080
     FM080000 25006KT P6SM SKC=

USA.gov is the U.S. government's official web portal to all federal, state and local government web resources and services.